This demonstration page uses our WeatherBlox Daily Observations layout. Learn more.

Left ArrowRight Arrow

41.55636, -103.73856

Hourly Observations for July 15, 2020

Temp ( °F °C ) Dew Point ( °F °C ) Humidity (%) Winds ( mph kmh ) Pressure ( in mb ) Visibility ( mi km ) Precip ( " mm )
6:58 pm 18:58 Mostly Cloudy 74 23.6 50 9.9 42 42 SSE 15 24 29.97 1015 10 16 0.00 0.00
7:58 pm 19:58 Partly Cloudy 72 22.1 51 10.8 49 49 SE 12 19 29.98 1015 10 16 0.00 0.00
8:58 pm 20:58 Mostly Cloudy 69 20.5 53 11.8 58 58 SE 16 26 29.98 1015 10 16 0.00 0.00
9:58 pm 21:58 Mostly Cloudy 67 19.7 54 12 61 61 SE 13 20 30.00 1016 10 16 0.00 0.00
10:58 pm 22:58 Mostly Cloudy 66 18.8 54 12.4 67 67 SE 17 28 29.98 1015 10 16 0.00 0.00
11:58 pm 23:58 Mostly Cloudy 64 18 55 13 73 73 SE 12 19 30.00 1016 10 16 0.00 0.00
12:58 am 00:58 Mostly Cloudy with Light Showers 63 17 56 13.5 80 80 SE 10 17 29.99 1016 10 16 0.00 0.00
1:58 am 01:58 Cloudy 63 17 57 14 83 83 SE 13 20 29.95 1014 10 16 0.00 0.00
2:58 am 02:58 Cloudy 63 17.3 58 14.5 84 84 ESE 6 9 29.95 1014 10 16 0.00 0.00
3:58 am 03:58 Cloudy 63 17 57 14 83 83 E 6 9 29.96 1014 10 16 0.00 0.00
4:58 am 04:58 Cloudy 60 15.7 56 13.4 86 86 ESE 9 15 29.98 1015 10 16 0.00 0.00
5:58 am 05:58 Cloudy 58 14.6 56 13.1 91 91 E 16 26 30.04 1017 10 16 0.00 0.00
6:58 am 06:58 Cloudy with Rain 52 11 50 9.8 92 92 E 21 33 30.13 1020 5 8 0.02 0.51
7:58 am 07:58 Cloudy 55 12.5 50 10.1 85 85 ESE 18 30 30.11 1020 10 16 0.01 0.25
8:58 am 08:58 Mostly Cloudy 58 14.3 49 9.4 73 73 ESE 18 30 30.13 1020 10 16 0.00 0.00
9:58 am 09:58 Mostly Cloudy 62 16.9 47 8.4 58 58 ESE 22 35 30.14 1021 10 16 0.00 0.00
10:58 am 10:58 Partly Cloudy 68 20 48 8.7 48 48 SE 20 31 30.12 1020 10 16 0.00 0.00
11:58 am 11:58 Mostly Sunny 70 21 49 9.6 48 48 S 18 30 30.11 1020 10 16 0.00 0.00
12:58 pm 12:58 Mostly Sunny 73 22.8 51 10.6 46 46 SSE 9 15 30.09 1019 10 16 0.00 0.00
1:58 pm 13:58 Mostly Sunny 77 24.9 51 10.6 41 41 ESE 8 13 30.05 1018 10 16 0.00 0.00
2:58 pm 14:58 Mostly Sunny 77 25.2 49 9.6 37 37 SE 10 17 30.02 1017 10 16 0.00 0.00
3:58 pm 15:58 Sunny 79 25.9 50 9.9 37 37 SSE 9 15 29.98 1015 10 16 0.00 0.00
4:58 pm 16:58 Sunny 80 26.4 49 9.3 34 34 S 8 13 29.98 1015 10 16 0.00 0.00
5:58 pm 17:58 Sunny 79 26.3 49 9.6 35 35 S 18 30 29.98 1015 10 16 0.00 0.00

Powered by AerisWeather